Location: Monteux
(44.0348°N, 4.9972°E)
Time: 17:46:31
(UTC+00:00)

SL-08 R/B - Pass Details

Date: 30 November 2020
Orbit: 950 x 1018 km, 82.9° (Epoch: 17 January)

Event Time Altitude Azimuth Distance (km) Brightness Sun altitude
Rises 17:36:03 0° 353° (N) 3,651 7.4 -16.2°
Reaches altitude 10° 17:38:35 10° 356° (N) 2,695 6.7 -16.6°
Maximum altitude 17:44:43 73° 80° (E) 997 4.3 -17.7°
Drops below altitude 10° 17:50:48 10° 166° (SSE) 2,668 6.8 -18.8°
Sets 17:53:18 0° 168° (SSE) 3,611 7.5 -19.2°
